Temperature
19 20 20 21 23 23 23 22 23 23 23 22 21 22 23 23 22 21 18 18 17 16 15 14 13 13 12 12 12 12 11 11 11 10 10 10 10 10 10 10 10 10 10 10 10 10 10 11 11
19 20 20 22 23 23 22 23 23 23 22 20 20 21 22 21 19 18 18 18 17 16 15 13 13 13 12 12 11 11 11 11 11 10 10 10 10 10 10 10 10 10 10 10 10 10 10 11 11
20 20 21 23 23 23 22 23 23 22 20 21 21 21 21 21 18 17 18 18 17 16 14 14 13 13 12 12 11 11 11 11 10 10 10 10 10 10 10 10 10 10 10 10 10 10 10 11 11
20 20 22 23 22 22 22 23 22 22 21 21 21 22 20 18 17 18 18 18 16 15 14 14 13 13 12 12 11 11 11 11 10 10 10 10 10 10 10 10 10 10 10 10 10 10 10 10 11
20 22 23 22 22 22 22 21 21 23 22 21 21 22 20 18 18 18 18 17 16 15 14 14 13 13 12 12 11 11 11 10 10 10 10 10 10 10 10 10 10 10 10 10 10 10 10 10 10
21 23 23 22 22 22 22 21 21 22 22 21 21 22 20 18 18 18 18 17 16 15 14 13 13 13 12 12 11 11 11 10 10 10 10 10 10 10 10 10 10 10 10 10 10 10 10 10 10
22 22 22 22 21 22 22 21 22 22 22 21 20 21 20 17 18 18 17 16 15 14 14 13 13 12 12 12 11 11 11 10 10 10 10 10 9 9 9 9 9 9 9 9 9 9 9 9 10
20 22 21 21 21 21 21 20 20 21 21 19 19 21 21 18 18 17 17 16 15 14 13 13 12 12 12 11 11 11 10 10 10 10 10 10 9 9 9 9 9 9 9 9 9 9 9 9 9
19 22 21 21 21 21 21 21 20 18 19 18 18 19 18 18 18 17 16 16 15 14 13 13 12 12 12 11 11 11 10 10 10 10 10 9 9 9 9 9 9 9 9 9 9 9 9 9 9
21 21 21 21 21 21 21 20 20 19 20 20 19 18 18 18 17 17 16 16 15 14 13 13 12 12 11 11 11 11 10 10 10 10 9 9 9 9 9 9 9 9 9 9 9 9 9 9 8
21 21 21 20 20 20 20 20 19 20 21 21 20 18 18 17 17 16 15 15 15 14 14 13 12 12 12 11 11 11 10 10 10 10 9 9 9 9 9 9 9 9 9 8 9 8 8 8 8
20 20 20 20 18 18 19 19 19 19 20 19 18 18 17 17 16 16 15 15 14 14 14 13 13 12 12 11 11 11 10 10 10 10 9 9 9 9 9 9 8 8 8 8 8 8 8 8 8
20 20 19 18 17 18 18 19 19 19 18 18 18 17 17 17 16 16 15 15 14 14 14 13 13 12 12 11 11 11 10 10 10 10 9 9 9 9 9 9 9 8 8 8 8 8 8 8 8
19 19 19 18 18 17 18 19 18 19 18 17 17 17 17 16 16 15 15 15 14 14 14 13 13 12 12 11 11 11 10 10 10 10 10 9 9 9 9 9 9 8 8 8 8 8 8 8 8
18 19 20 19 18 18 17 19 19 19 17 17 17 17 16 16 16 15 15 15 15 14 14 13 13 12 12 11 11 11 10 10 10 10 10 9 9 9 9 9 9 8 8 8 8 8 8 8 8
19 19 20 20 18 17 18 20 21 18 17 17 17 17 16 16 16 16 15 15 15 14 14 13 13 12 12 11 11 11 10 10 10 10 10 9 9 9 9 9 8 8 8 8 8 8 8 8 8
19 20 19 20 19 18 18 20 21 17 17 17 18 17 16 15 15 15 15 15 15 14 14 13 13 12 12 11 11 11 10 10 10 10 10 9 9 9 9 9 8 8 8 8 8 8 8 7 8
19 19 19 19 19 18 18 19 21 19 17 18 18 17 16 16 15 15 15 15 15 14 14 13 13 12 12 11 11 11 10 10 10 10 9 9 9 9 9 9 8 8 8 8 8 7 7 7 7
19 18 19 19 19 17 18 19 20 20 18 17 17 17 16 16 15 15 15 15 15 14 14 13 13 12 12 11 11 10 10 10 10 10 9 9 9 9 9 9 8 8 8 8 7 7 7 7 6
18 18 19 19 17 17 18 19 20 20 18 17 17 17 16 15 14 14 15 15 15 14 14 13 13 12 12 11 11 10 10 10 10 10 9 9 9 9 9 8 8 8 8 7 7 7 6 6 5
17 18 18 18 18 17 17 20 21 20 17 16 16 16 16 15 14 14 14 15 14 14 14 14 13 12 12 11 11 10 10 10 10 9 9 9 9 9 9 8 8 8 7 7 7 6 6 5 5
18 18 17 16 17 19 17 19 21 20 19 18 17 16 15 14 14 14 14 14 14 14 14 13 13 12 12 11 11 10 10 10 10 9 9 9 9 9 8 8 8 8 7 7 6 6 5 5 4
18 16 16 16 17 17 17 17 21 20 20 20 19 17 15 14 13 13 14 14 14 14 14 13 13 12 12 11 11 10 10 10 10 9 9 9 9 8 8 8 8 7 7 6 6 5 5 4 4
15 15 15 15 17 17 18 17 20 21 20 20 19 17 15 13 13 13 13 13 13 13 13 13 12 12 12 11 10 10 10 10 10 9 9 9 8 8 8 8 7 7 6 6 5 5 4 4 3
16 17 17 17 17 18 16 16 19 21 19 18 17 16 15 13 13 13 13 13 13 13 13 13 12 12 11 11 10 10 10 10 9 9 9 8 8 8 8 7 7 6 6 5 5 4 4 3 3
16 17 18 17 18 18 16 16 20 20 17 16 15 15 14 13 13 13 13 13 13 13 13 13 12 12 11 11 10 10 10 9 9 9 9 8 8 8 7 7 6 6 5 5 4 4 3 3 2
16 17 17 17 16 16 18 18 19 19 19 17 17 15 15 14 14 14 13 13 13 13 13 13 12 12 11 11 10 10 10 9 9 9 8 8 8 7 7 6 6 5 5 4 4 3 3 2 2
16 17 16 16 16 17 18 18 19 20 20 19 18 17 15 14 14 14 14 13 13 13 13 12 12 11 11 11 10 10 10 9 9 8 8 8 7 7 6 6 5 5 4 4 3 3 2 2 1
14 15 16 17 17 17 17 19 19 20 19 19 18 17 15 14 14 14 14 13 13 12 12 12 12 11 11 10 10 10 9 9 8 8 8 7 7 6 6 5 5 4 4 3 2 2 2 1 1
16 17 17 16 16 16 17 18 20 18 18 17 17 16 15 14 14 14 14 13 13 13 12 12 12 11 11 10 10 9 9 8 8 8 7 7 6 6 5 5 4 4 3 3 2 2 1 1 0
Wind_Speed
4 3 2 2 3 3 6 5 4 5 3 2 2 1 2 4 3 4 4 8 8 14 16 17 15 14 13 12 12 12 12 12 12 12 12 12 13 13 13 14 14 14 15 15 15 15 16 16 16
3 2 2 2 3 5 6 5 5 4 3 3 3 2 2 4 4 6 6 8 9 14 15 15 16 15 13 12 12 11 11 11 11 11 12 12 13 13 13 13 13 13 14 14 14 14 14 14 14
2 2 1 2 3 4 6 5 5 4 3 2 3 1 1 4 4 4 4 9 11 14 14 15 16 15 13 13 12 11 11 11 11 11 12 12 12 12 12 12 12 12 12 12 12 13 13 13 13
2 2 1 2 5 3 3 5 3 5 4 1 1 3 3 4 2 3 6 10 12 14 15 16 16 15 14 13 12 11 11 11 10 11 11 11 11 11 10 10 10 10 10 10 11 11 11 11 11
1 1 3 4 4 3 2 2 3 4 3 2 2 2 4 4 3 4 8 10 12 14 15 17 16 15 14 13 12 12 11 10 10 10 10 10 10 9 9 9 8 8 8 9 9 9 9 9 9
1 2 4 5 5 3 3 2 3 3 2 2 2 2 3 5 4 5 8 10 12 14 14 16 16 15 14 13 12 12 11 10 9 9 9 9 8 8 7 7 7 7 7 7 7 7 7 8 8
1 2 3 5 5 4 3 2 3 3 3 2 1 3 3 6 4 5 8 9 11 13 14 14 15 15 15 14 13 12 11 10 9 9 8 7 7 6 6 5 5 5 5 5 6 6 6 7 7
1 2 4 4 5 4 3 2 1 3 2 1 2 4 1 4 4 6 8 8 10 12 12 13 14 14 14 13 14 12 11 10 9 8 8 8 6 6 5 3 3 3 4 4 5 5 6 5 5
1 3 4 4 5 3 3 3 2 1 2 3 3 2 3 4 7 8 8 9 10 11 11 12 12 12 12 12 13 13 11 10 9 9 9 7 4 4 3 3 2 2 2 3 4 5 5 4 2
1 4 3 2 2 2 3 3 2 4 6 6 5 4 3 6 8 10 11 12 13 13 13 11 12 12 12 10 11 10 9 9 7 6 6 4 3 2 1 2 1 1 2 2 3 4 4 5 5
1 2 2 3 3 2 3 4 3 5 8 8 7 5 6 7 8 10 11 12 13 13 13 12 11 12 12 10 9 8 7 7 6 5 5 4 3 2 2 1 2 2 2 3 3 4 5 6 6
2 2 2 2 2 3 4 4 5 8 9 4 4 3 6 9 10 11 11 11 11 12 13 13 12 12 12 10 9 8 7 6 6 5 5 4 3 2 1 2 2 2 3 4 5 5 6 7 7
3 2 3 3 4 5 6 9 8 10 9 5 4 5 7 8 9 9 9 10 11 12 13 13 12 12 12 10 8 8 7 7 7 6 5 4 3 2 2 2 2 3 3 4 5 6 7 8 8
1 3 5 5 5 4 7 9 7 11 7 6 7 8 8 8 9 9 10 11 12 12 13 13 13 13 12 10 9 8 8 7 6 6 5 5 3 2 2 2 2 3 4 5 6 7 7 7 8
2 4 5 4 4 3 4 10 10 9 7 9 9 9 8 8 8 10 10 11 12 12 12 13 13 13 12 11 9 8 8 7 6 6 6 5 4 3 2 2 2 3 4 5 6 7 7 7 8
3 4 5 2 2 2 5 11 6 4 8 10 10 10 9 9 10 9 9 10 11 11 12 12 10 12 12 10 9 8 8 7 6 5 5 5 4 3 3 3 3 3 4 5 5 6 6 7 7
4 5 5 4 2 3 6 12 9 5 9 12 12 11 11 10 10 9 9 10 10 12 12 13 13 13 12 10 9 8 7 7 6 6 5 5 4 4 3 3 3 3 4 4 4 5 6 7 8
5 6 6 7 3 5 11 17 17 12 12 15 14 12 12 12 12 10 9 9 9 11 12 13 13 13 12 9 8 6 6 6 6 5 5 5 4 4 3 3 3 3 3 4 4 5 5 6 7
6 8 11 10 6 6 14 20 21 16 14 16 15 14 14 13 11 9 9 9 10 11 12 13 13 13 11 9 9 8 7 6 5 5 5 5 4 4 4 3 3 3 3 4 4 5 6 6 6
8 10 12 9 3 6 15 22 21 14 13 14 15 15 15 13 12 11 11 11 11 12 13 13 14 14 13 10 9 6 6 5 4 5 5 5 5 4 3 3 3 2 3 3 4 4 5 5 5
10 12 11 10 9 6 10 13 9 5 7 9 11 12 13 13 14 14 14 13 12 13 13 12 14 13 13 11 8 6 5 4 4 5 4 5 5 4 4 4 3 3 3 3 4 4 5 6 5
10 7 9 8 9 7 5 9 11 6 7 6 7 8 10 12 13 13 14 14 14 13 11 12 13 13 13 12 11 12 9 7 7 6 5 5 5 5 4 4 4 4 3 4 4 4 5 6 6
6 1 4 6 8 10 7 8 9 4 5 4 3 4 7 10 12 14 15 14 13 12 11 11 12 12 13 12 12 12 10 7 6 6 6 6 5 5 5 4 4 4 4 4 4 5 6 5 7
6 4 2 3 5 8 6 7 8 3 4 7 6 5 4 7 11 12 13 12 12 11 11 11 13 13 12 13 12 12 11 9 8 8 7 6 4 4 5 5 5 5 4 4 5 5 7 7 8
7 6 5 5 5 5 2 7 10 7 6 9 10 8 6 6 9 12 14 14 14 14 13 13 14 13 13 13 12 12 11 11 10 9 8 7 5 5 5 5 5 5 5 5 6 6 7 8 9
10 9 7 5 5 4 4 8 7 6 7 8 8 8 6 5 8 12 14 14 15 15 15 15 15 14 13 13 12 11 11 8 7 8 7 7 6 5 5 6 6 6 6 7 7 7 8 8 10
8 9 7 6 5 7 7 7 9 5 4 3 3 3 3 4 7 10 13 14 15 16 16 16 15 14 14 13 12 11 11 9 8 8 7 6 6 4 6 6 6 7 7 8 8 8 9 10 10
5 6 6 7 6 7 8 8 6 5 3 2 2 3 3 2 4 8 11 13 14 14 14 15 15 15 14 13 12 9 10 10 9 8 8 7 6 6 6 7 7 8 8 9 9 9 10 11 12
9 8 8 7 6 6 7 7 4 7 5 5 5 4 4 3 4 6 8 11 12 13 13 14 14 14 13 13 12 11 10 9 9 8 8 7 7 7 7 7 8 8 9 9 10 11 12 13 13
12 13 13 9 9 7 8 9 3 7 7 7 8 7 6 5 5 5 7 9 11 13 14 14 14 14 13 12 12 11 10 9 9 9 8 7 7 7 7 8 8 9 10 10 11 13 13 14 15
Wind_Direction
315 307 267 242 191 154 131 126 131 128 119 90 94 148 74 52 30 68 98 141 142 154 157 157 154 148 141 134 128 120 113 107 101 95 90 84 78 73 67 63 63 64 62 61 58 56 55 54 54
319 291 239 233 201 158 139 144 140 109 93 115 125 144 121 88 68 96 125 145 153 156 158 158 152 150 145 139 132 125 117 111 105 99 95 88 82 76 71 68 66 65 64 62 60 56 55 53 52
272 283 249 185 184 156 142 144 130 108 116 163 145 123 51 96 102 109 114 151 157 158 159 152 155 153 148 143 140 134 125 117 110 106 99 92 84 78 75 72 68 66 65 63 60 57 54 53 51
248 203 202 186 143 106 120 132 138 148 143 139 189 140 114 74 77 84 129 155 159 159 160 155 160 155 151 147 144 138 132 124 116 113 106 97 89 83 80 76 73 69 65 62 59 57 54 51 49
262 210 174 156 138 120 112 110 166 172 158 150 223 167 133 106 79 110 145 159 161 160 160 158 162 158 155 152 147 144 139 133 127 122 115 106 99 93 87 80 75 70 65 61 57 55 52 49 47
152 211 193 172 151 138 138 148 186 187 166 162 219 213 128 116 107 128 152 163 163 162 163 160 164 162 160 157 154 150 147 144 139 132 125 116 107 101 93 83 76 69 63 57 53 50 47 43 41
159 179 179 171 165 163 142 158 204 204 207 183 237 242 148 135 99 138 154 161 164 165 167 164 166 166 165 162 159 156 153 152 149 142 133 125 115 106 95 83 75 66 57 49 43 40 38 35 31
44 158 166 182 187 179 146 163 216 250 239 108 231 252 164 120 119 140 146 157 164 170 173 171 170 169 168 165 161 159 158 156 153 147 140 137 132 125 117 106 81 60 48 39 31 26 23 22 16
249 214 201 193 199 185 167 197 177 236 229 205 224 279 52 113 142 148 151 159 169 177 180 178 174 170 169 166 161 163 162 162 162 155 151 160 157 141 139 93 91 57 27 14 8 6 3 345 341
220 223 209 185 210 206 199 231 215 214 233 232 221 202 144 154 167 172 173 172 177 182 184 183 181 174 171 168 167 171 169 168 173 164 166 172 167 150 135 140 188 276 327 326 342 336 318 310 327
197 221 186 207 226 247 235 236 221 243 255 255 251 224 180 181 188 190 187 182 182 183 185 189 186 180 176 174 173 172 171 167 167 167 172 180 185 188 208 225 221 254 284 313 318 302 324 325 326
205 201 222 229 199 229 247 248 239 240 260 282 266 235 194 199 199 198 193 187 183 185 188 190 189 185 182 179 175 173 173 172 172 179 188 193 194 213 220 252 284 294 303 315 311 313 316 312 310
221 221 233 246 241 247 251 250 261 254 253 251 233 217 215 212 207 202 198 190 187 189 189 190 189 187 182 180 176 176 175 176 175 175 187 193 199 217 228 260 277 292 303 302 304 305 312 309 309
247 252 260 261 251 240 250 259 251 256 236 226 223 222 220 217 211 200 196 194 193 192 190 188 189 188 184 182 179 179 176 176 178 177 183 192 201 220 239 259 284 295 299 304 302 307 308 306 306
232 262 257 235 243 242 255 261 242 250 222 231 230 225 219 215 209 207 200 198 196 194 191 187 186 187 185 183 180 178 178 177 177 179 182 184 193 211 237 270 280 290 294 296 299 304 303 303 302
220 246 250 225 237 210 249 272 259 227 223 239 239 231 221 215 212 209 204 202 199 194 190 185 182 186 185 181 177 178 178 178 177 174 174 184 195 210 228 251 272 286 288 292 300 305 304 303 306
226 254 269 281 212 233 249 274 277 239 239 248 244 235 225 217 212 206 201 200 198 194 188 184 183 185 182 176 173 173 172 176 172 170 176 183 192 202 224 250 267 276 286 295 301 300 307 308 310
253 267 273 281 277 263 267 273 278 262 249 254 250 237 226 221 214 202 195 193 191 190 187 182 180 181 176 170 168 165 164 168 170 175 178 183 193 202 225 243 258 269 278 289 295 302 305 306 310
259 266 276 284 292 276 277 281 283 278 257 252 248 239 228 223 210 193 189 185 181 182 183 181 179 178 175 175 178 178 180 174 176 178 179 184 193 200 215 231 245 261 277 289 298 303 304 306 318
240 262 276 287 272 277 290 286 283 277 259 254 251 242 230 219 202 194 189 185 184 181 181 181 182 181 182 183 182 183 174 175 172 166 172 183 193 201 207 223 237 245 265 274 287 296 301 305 313
240 254 272 285 301 265 298 290 279 275 265 258 251 244 233 220 208 196 191 188 186 184 183 182 183 183 184 178 167 152 147 154 173 179 180 187 195 199 206 220 232 237 254 268 278 285 289 299 301
252 246 254 269 288 294 316 301 297 299 290 268 253 237 232 220 212 201 194 191 190 186 181 183 182 182 181 178 181 182 189 193 195 188 184 184 194 198 203 213 226 236 248 259 268 274 282 286 292
244 178 222 255 271 281 258 266 286 298 294 313 300 261 239 222 212 204 199 194 190 183 180 182 181 183 183 186 189 192 196 194 181 179 182 186 189 198 204 213 224 235 246 258 267 271 274 276 281
159 149 163 215 250 261 249 249 281 282 299 314 315 305 264 226 213 207 198 193 188 183 181 182 182 184 184 188 191 197 195 187 181 186 188 193 194 200 207 215 226 236 245 252 260 268 271 273 276
187 221 250 242 232 248 190 245 261 284 291 294 300 301 292 237 212 203 196 193 190 187 185 185 186 187 187 191 195 199 198 195 195 194 197 199 202 208 210 216 228 237 244 252 259 265 271 273 274
198 218 235 262 265 275 219 246 265 297 293 286 284 286 281 241 215 208 202 199 196 192 190 189 191 191 190 193 197 199 196 197 200 200 201 205 211 215 213 222 234 243 249 254 259 266 268 272 272
187 214 239 259 271 272 256 260 284 270 273 282 294 297 284 249 219 212 206 203 200 196 195 194 193 194 193 195 195 196 196 197 198 198 203 209 213 214 218 229 240 247 252 256 262 264 271 274 275
225 178 177 215 248 259 259 257 256 253 277 317 323 326 319 271 227 214 209 206 204 201 198 197 198 198 196 196 196 196 197 198 198 199 203 209 214 216 225 236 245 251 256 258 262 268 271 274 275
176 190 208 217 241 256 269 259 234 251 273 287 295 300 298 276 243 220 213 208 204 201 198 198 200 199 197 197 197 197 198 198 200 204 208 211 217 222 231 240 249 256 260 264 267 269 275 276 277
214 211 204 220 230 236 264 271 241 252 268 271 280 288 288 274 256 235 217 206 203 203 201 201 200 201 200 198 199 200 198 197 203 209 211 214 222 229 237 245 253 259 262 266 271 275 276 276 278
Height
1542 1542 1543 1545 1544 1543 1547 1548 1546 1548 1549 1552 1553 1552 1551 1551 1553 1560 1560 1558 1558 1559 1560 1561 1562 1563 1564 1565 1565 1565 1565 1565 1565 1564 1563 1563 1562 1561 1560 1559 1558 1557 1556 1555 1554 1553 1552 1551 1550
1543 1544 1546 1545 1542 1547 1550 1547 1548 1549 1552 1554 1554 1554 1553 1554 1556 1558 1558 1558 1558 1560 1561 1562 1563 1564 1564 1565 1566 1566 1566 1566 1565 1565 1564 1564 1563 1562 1561 1560 1559 1558 1557 1556 1555 1554 1553 1552 1551
1544 1545 1547 1543 1543 1545 1549 1547 1549 1552 1554 1554 1554 1554 1554 1556 1557 1558 1558 1558 1559 1560 1561 1562 1563 1564 1565 1566 1566 1567 1567 1567 1566 1566 1565 1565 1564 1563 1562 1561 1560 1559 1558 1557 1556 1555 1554 1553 1552
1545 1547 1547 1543 1547 1548 1547 1548 1551 1552 1554 1554 1554 1554 1556 1556 1557 1557 1557 1558 1559 1560 1561 1562 1563 1564 1565 1566 1567 1567 1567 1568 1567 1567 1566 1566 1565 1564 1563 1562 1561 1560 1559 1558 1557 1556 1555 1554 1553
1546 1546 1545 1547 1549 1549 1550 1552 1553 1551 1552 1554 1554 1553 1555 1556 1556 1556 1557 1558 1559 1561 1562 1563 1563 1565 1566 1566 1567 1567 1568 1568 1568 1568 1567 1567 1566 1565 1564 1563 1562 1561 1560 1559 1558 1557 1556 1555 1554
1548 1545 1545 1549 1549 1550 1551 1553 1553 1551 1552 1554 1554 1553 1555 1555 1555 1556 1557 1558 1559 1560 1562 1563 1563 1565 1566 1567 1567 1568 1568 1568 1568 1568 1568 1567 1567 1566 1565 1564 1563 1562 1561 1560 1559 1558 1557 1556 1555
1548 1545 1547 1548 1550 1550 1551 1553 1552 1551 1552 1553 1554 1553 1554 1555 1555 1555 1556 1557 1559 1560 1561 1563 1564 1565 1566 1567 1567 1568 1569 1569 1569 1569 1569 1568 1568 1567 1566 1565 1564 1563 1562 1561 1560 1559 1558 1557 1556
1548 1547 1549 1549 1550 1550 1552 1553 1553 1553 1552 1554 1554 1553 1553 1554 1553 1554 1555 1556 1557 1559 1561 1562 1564 1565 1566 1567 1567 1568 1569 1569 1569 1569 1569 1569 1568 1567 1567 1566 1565 1564 1563 1562 1561 1560 1559 1557 1556
1548 1548 1549 1549 1549 1549 1551 1552 1553 1552 1553 1553 1552 1553 1552 1552 1552 1553 1553 1554 1556 1557 1559 1561 1563 1564 1565 1567 1567 1568 1568 1569 1569 1569 1569 1569 1569 1568 1567 1566 1565 1564 1563 1562 1561 1560 1558 1557 1556
1549 1548 1548 1549 1549 1549 1551 1551 1552 1552 1551 1551 1551 1550 1550 1550 1550 1551 1552 1552 1554 1555 1558 1559 1561 1563 1564 1566 1567 1568 1568 1568 1569 1569 1569 1569 1568 1568 1567 1566 1565 1564 1563 1562 1561 1559 1558 1557 1556
1548 1547 1548 1550 1550 1551 1551 1551 1551 1550 1547 1548 1548 1549 1548 1548 1548 1549 1550 1551 1552 1554 1556 1557 1559 1561 1563 1564 1566 1567 1567 1568 1568 1568 1568 1568 1568 1567 1566 1566 1565 1564 1563 1562 1560 1559 1558 1556 1554
1549 1549 1549 1550 1550 1550 1550 1549 1549 1548 1546 1546 1546 1546 1546 1546 1546 1547 1548 1549 1550 1552 1554 1556 1558 1559 1561 1563 1564 1565 1566 1567 1567 1567 1567 1567 1567 1566 1566 1565 1564 1563 1562 1560 1559 1558 1556 1554 1553
1548 1549 1550 1549 1549 1549 1549 1548 1546 1544 1544 1543 1543 1543 1543 1544 1544 1545 1546 1547 1548 1550 1552 1553 1555 1557 1559 1561 1562 1563 1564 1565 1566 1566 1566 1566 1566 1565 1565 1564 1563 1562 1560 1559 1558 1556 1555 1553 1551
1548 1549 1548 1548 1548 1548 1547 1545 1545 1540 1540 1540 1540 1540 1540 1541 1541 1542 1543 1544 1546 1547 1549 1551 1553 1555 1557 1559 1560 1562 1563 1563 1564 1564 1564 1565 1564 1564 1563 1562 1561 1560 1559 1557 1556 1554 1552 1550 1548
1549 1547 1545 1546 1546 1546 1546 1541 1538 1537 1537 1537 1537 1537 1537 1538 1538 1539 1540 1541 1543 1545 1547 1549 1550 1553 1555 1557 1558 1560 1561 1562 1562 1563 1563 1563 1563 1562 1561 1561 1560 1558 1557 1555 1554 1552 1550 1548 1546
1547 1545 1543 1542 1544 1544 1546 1536 1532 1534 1534 1534 1534 1534 1534 1534 1535 1536 1537 1538 1540 1541 1543 1546 1548 1550 1552 1554 1556 1558 1559 1560 1561 1561 1561 1561 1561 1560 1560 1559 1557 1556 1554 1553 1551 1549 1547 1545 1543
1544 1543 1542 1541 1542 1543 1542 1534 1529 1531 1531 1530 1530 1530 1530 1531 1531 1532 1533 1535 1536 1538 1540 1542 1545 1547 1550 1552 1554 1556 1557 1558 1558 1559 1559 1559 1559 1558 1557 1556 1555 1554 1552 1550 1549 1547 1545 1542 1540
1543 1543 1542 1541 1539 1541 1538 1530 1525 1526 1526 1525 1524 1525 1525 1526 1527 1529 1530 1531 1533 1535 1537 1539 1542 1544 1547 1549 1551 1553 1554 1555 1556 1556 1556 1556 1556 1556 1555 1554 1552 1551 1549 1548 1546 1544 1541 1539 1536
1542 1543 1542 1539 1538 1540 1532 1525 1518 1518 1519 1519 1518 1519 1520 1521 1523 1524 1526 1528 1530 1532 1534 1536 1538 1541 1543 1546 1548 1550 1551 1552 1553 1554 1554 1554 1553 1553 1552 1551 1550 1548 1547 1545 1543 1541 1539 1536 1533
1543 1543 1539 1536 1539 1538 1529 1521 1512 1511 1512 1512 1512 1512 1514 1516 1518 1519 1522 1524 1526 1528 1531 1533 1535 1538 1540 1543 1545 1547 1549 1550 1550 1551 1551 1551 1551 1550 1549 1548 1547 1545 1544 1542 1540 1538 1535 1533 1530
1541 1540 1537 1538 1536 1535 1533 1514 1505 1505 1508 1508 1508 1508 1509 1511 1513 1515 1517 1520 1522 1525 1527 1530 1532 1535 1537 1540 1542 1544 1545 1546 1547 1547 1548 1548 1547 1547 1546 1545 1544 1542 1540 1539 1537 1535 1532 1530 1528
1538 1537 1539 1540 1538 1530 1534 1524 1502 1502 1503 1503 1503 1504 1504 1506 1508 1511 1513 1515 1518 1521 1524 1527 1529 1531 1534 1536 1538 1540 1541 1543 1543 1544 1544 1544 1544 1543 1543 1542 1540 1539 1537 1535 1533 1531 1529 1527 1525
1534 1538 1540 1539 1537 1534 1530 1530 1505 1501 1499 1497 1499 1500 1501 1502 1504 1506 1508 1511 1514 1517 1520 1523 1525 1528 1530 1532 1534 1537 1538 1539 1540 1540 1540 1541 1540 1540 1539 1538 1537 1535 1533 1531 1529 1527 1525 1523 1521
1538 1539 1540 1540 1536 1534 1526 1527 1508 1495 1497 1496 1496 1498 1498 1499 1500 1502 1504 1507 1510 1513 1516 1519 1521 1524 1526 1528 1530 1533 1534 1535 1536 1536 1537 1537 1536 1536 1535 1534 1533 1531 1529 1527 1525 1523 1521 1518 1516
1535 1535 1535 1532 1530 1524 1527 1527 1507 1494 1497 1497 1497 1496 1496 1496 1496 1498 1500 1502 1505 1508 1512 1515 1517 1519 1522 1524 1526 1528 1530 1531 1532 1532 1533 1533 1532 1532 1531 1530 1528 1526 1525 1523 1520 1518 1516 1513 1511
1529 1528 1531 1532 1526 1519 1526 1520 1498 1495 1497 1496 1496 1494 1493 1493 1493 1494 1496 1499 1501 1504 1507 1510 1513 1515 1518 1520 1522 1524 1525 1526 1527 1528 1528 1528 1528 1527 1526 1525 1523 1522 1520 1518 1515 1513 1510 1508 1505
1527 1526 1524 1526 1528 1529 1514 1507 1497 1493 1493 1493 1493 1493 1492 1491 1491 1491 1493 1495 1497 1500 1503 1506 1508 1511 1513 1515 1517 1519 1520 1522 1523 1524 1524 1524 1523 1522 1521 1520 1518 1516 1514 1512 1510 1507 1505 1502 1499
1523 1522 1528 1528 1528 1523 1511 1507 1497 1489 1488 1489 1490 1490 1490 1489 1489 1489 1490 1491 1493 1496 1499 1501 1504 1506 1509 1511 1512 1514 1516 1517 1518 1519 1519 1519 1518 1517 1516 1515 1513 1511 1509 1507 1504 1501 1498 1495 1492
1523 1525 1520 1519 1519 1518 1513 1501 1488 1487 1487 1488 1488 1488 1488 1487 1487 1487 1487 1488 1490 1491 1494 1496 1499 1501 1503 1505 1507 1509 1510 1512 1513 1513 1514 1513 1513 1512 1510 1509 1507 1505 1503 1501 1498 1495 1492 1488 1485
1512 1511 1513 1517 1515 1516 1510 1498 1485 1487 1487 1488 1487 1486 1485 1485 1484 1484 1484 1484 1485 1486 1488 1491 1493 1495 1498 1500 1502 1504 1505 1506 1507 1508 1508 1508 1507 1506 1505 1503 1501 1499 1497 1494 1491 1488 1485 1481 1477